Location: Newark
(44.3248°N, 23.7839°E)
Time: 13:06:18
(UTC+00:00)

DIWATA 2B (PO-101) - Visible Passes

Search period start: 13 April 2024 00:00
Search period end: 23 April 2024 00:00
Orbit: 577 x 588 km, 98.1° (Epoch: 13 April)

Date Brightness Start Highest point End Pass type
(mag) Time Alt. Az. Time Alt. Az. Time Alt. Az.
13 Apr ? 00:41:44 10° ESE 00:44:47 20° ENE 00:47:52 10° NNE visible
13 Apr ? 02:17:35 21° SSW 02:19:52 38° W 02:23:48 10° NNW visible
14 Apr ? 00:47:14 10° ESE 00:50:30 23° ENE 00:53:48 10° NNE visible
14 Apr ? 02:23:10 18° SSW 02:25:40 33° W 02:29:29 10° NNW visible
15 Apr ? 00:52:47 10° ESE 00:56:14 26° ENE 00:59:41 10° N visible
15 Apr ? 02:28:45 15° SSW 02:31:28 29° W 02:35:08 10° NW visible
16 Apr ? 00:58:21 10° SE 01:01:57 29° ENE 01:05:34 10° N visible
16 Apr ? 02:34:20 13° SSW 02:37:15 26° W 02:40:45 10° NW visible
17 Apr ? 01:03:56 10° SE 01:07:40 33° ENE 01:11:25 10° N visible
17 Apr ? 02:39:55 11° SW 02:43:03 22° W 02:46:22 10° NW visible
18 Apr ? 01:09:32 10° SE 01:13:23 37° ENE 01:17:15 10° N visible
18 Apr ? 02:45:47 10° SW 02:48:51 20° W 02:51:55 10° NW visible
19 Apr ? 01:15:10 10° SE 01:19:06 43° ENE 01:23:04 10° N visible
19 Apr ? 02:51:51 10° SW 02:54:38 17° W 02:57:26 10° NW visible
20 Apr ? 01:20:49 10° SSE 01:24:49 49° ENE 01:28:52 10° N visible
20 Apr ? 02:58:00 10° SW 03:00:26 15° W 03:02:53 10° NW visible
21 Apr ? 01:26:28 10° SSE 01:30:32 57° ENE 01:34:39 10° N visible
22 Apr ? 01:32:08 10° SSE 01:36:16 66° ENE 01:40:24 10° N visible
